Wind_Speed
28 26 26 26 24 24 26 25 24 23 24 24 25 26 24 24 23 23 24 23 23 23 22 22 22 22 23 23 24 25 25 25 25 24 24 25 25 25 26 26 26 26 25 25
30 28 27 25 25 26 27 25 25 25 25 25 26 26 25 25 24 23 24 24 23 23 23 23 23 24 24 25 26 26 27 27 27 27 27 26 26 26 27 27 27 26 27 26
30 28 28 28 25 25 25 24 25 27 27 28 29 28 26 25 25 23 24 25 24 24 24 24 24 25 25 26 27 28 29 29 29 29 28 29 29 29 28 28 28 28 28 28
31 31 31 28 26 26 26 25 26 28 28 29 29 28 27 26 25 24 25 26 25 24 24 24 25 26 27 27 28 29 29 29 30 30 29 30 30 30 30 30 29 29 29 30
32 32 30 27 26 26 27 27 28 29 28 28 28 28 27 27 25 24 24 25 25 25 25 25 25 26 27 28 29 29 30 30 30 30 29 29 29 29 29 30 29 29 30 30
33 32 31 28 28 27 27 30 30 29 29 28 27 27 28 28 27 27 25 26 25 25 26 26 26 27 28 28 28 28 29 29 28 29 29 28 28 28 29 29 29 28 28 29
33 32 30 29 29 27 28 31 29 27 28 28 28 28 28 28 28 27 27 27 27 27 27 27 27 27 27 27 27 28 28 28 28 28 28 28 28 28 28 28 28 28 28 28
33 33 32 30 29 30 30 29 30 29 28 28 28 28 28 28 27 27 28 28 28 27 28 28 28 27 28 28 28 29 28 28 28 28 28 28 28 28 28 28 28 28 28 28
32 33 32 30 32 32 31 30 30 29 29 29 28 28 28 28 27 27 28 28 28 27 26 27 28 28 28 29 29 29 29 29 29 29 29 29 28 28 28 28 27 27 28 28
34 36 35 33 33 33 31 31 30 29 30 29 28 28 28 28 28 27 28 28 28 27 27 27 28 28 29 29 29 30 30 30 30 30 30 30 29 29 29 28 28 29 29 29
35 36 36 34 33 32 32 30 31 31 30 29 28 27 28 28 27 27 28 28 28 27 27 28 28 29 29 29 30 30 31 31 31 31 29 28 28 28 28 29 29 29 29 29
34 35 36 36 35 34 33 32 33 32 31 30 29 27 27 28 28 27 27 27 27 27 28 28 29 29 29 29 30 31 31 31 31 30 29 28 29 29 29 29 29 30 29 29
36 37 37 36 36 35 35 33 31 31 30 29 27 27 28 28 28 28 28 28 28 28 29 29 29 29 29 28 29 30 30 30 30 29 28 28 29 29 29 29 29 29 29 29
36 36 36 37 36 34 35 34 31 30 29 29 29 29 28 28 29 29 29 28 28 28 28 28 28 28 28 28 29 30 30 30 29 28 28 29 29 30 30 29 29 29 30 30
35 35 36 37 35 34 34 33 32 29 29 29 29 30 29 28 29 29 29 29 29 28 27 28 28 28 28 28 29 29 29 30 29 29 29 29 30 30 30 31 30 30 30 30
35 34 35 35 34 34 34 33 31 30 30 30 29 29 29 29 30 30 30 29 29 28 28 28 28 28 27 28 28 28 28 28 28 29 29 30 30 30 31 30 29 30 29 29
34 33 33 34 34 33 33 32 31 31 30 30 30 29 29 29 29 30 29 29 29 28 28 28 28 28 27 28 28 28 27 27 28 29 29 29 29 29 29 29 29 29 30 30
32 32 32 32 32 32 32 31 31 30 29 29 29 29 29 30 29 29 29 29 28 28 27 27 28 28 27 27 28 28 27 27 27 28 28 28 28 29 29 29 29 30 30 31
31 31 31 31 32 33 32 31 30 30 29 29 28 28 28 28 28 28 28 28 28 27 28 28 28 29 28 28 27 28 27 27 28 28 28 28 29 29 29 29 30 30 30 30
30 30 29 29 29 30 29 29 29 30 29 28 28 28 28 27 27 27 27 28 28 28 28 28 28 28 28 27 27 26 26 27 27 27 27 27 28 28 28 28 29 30 30 29
28 28 28 28 28 27 27 28 29 29 28 28 27 27 28 27 26 26 27 27 28 28 28 28 28 28 28 28 27 27 27 26 26 26 26 27 28 28 28 29 29 29 29 29
25 27 27 26 27 27 26 26 27 28 27 27 26 26 27 27 27 27 27 27 27 27 27 27 27 27 27 27 27 27 26 26 26 27 27 27 28 27 28 28 28 29 29 30
22 23 24 25 25 26 26 26 27 27 26 25 25 25 26 28 27 26 26 26 25 25 25 25 25 25 26 27 26 26 26 26 27 27 28 28 28 27 28 28 29 29 29 30
21 21 22 23 24 24 24 25 25 25 24 24 24 24 25 26 26 27 26 26 25 25 25 24 24 25 25 26 26 26 26 27 27 27 28 27 27 28 28 29 29 30 30 30
20 20 20 21 21 21 21 22 22 22 23 23 23 23 23 24 24 24 25 25 25 25 25 25 25 25 25 26 26 26 27 27 28 28 27 27 28 28 29 29 30 30 29 29
19 19 19 19 20 21 21 22 22 21 21 22 22 22 22 22 23 23 23 24 24 24 24 24 24 25 25 26 26 27 28 28 28 28 28 28 29 29 29 29 29 29 28 28
20 19 19 19 20 21 20 20 20 20 21 21 22 22 23 23 24 24 24 24 24 24 25 25 25 25 25 25 26 27 27 28 28 28 28 28 28 28 29 28 27 28 28 28
Wind_Direction
243 241 236 235 239 243 245 246 249 251 256 260 262 262 266 271 274 278 280 277 277 278 278 276 275 279 281 283 284 288 290 292 294 295 295 294 294 294 293 291 289 289 288 287
244 244 240 236 238 245 247 248 252 251 251 254 260 263 269 273 275 276 278 278 279 279 278 277 277 279 281 282 284 287 289 291 293 293 293 292 293 293 293 291 289 288 288 286
243 245 245 242 241 246 247 246 250 250 252 255 258 263 267 272 275 276 277 277 279 282 280 278 278 281 282 283 284 286 288 290 291 292 293 293 293 292 291 289 289 287 286 286
242 242 242 241 239 240 243 244 247 250 252 256 261 262 264 268 271 274 277 279 279 279 279 280 280 282 284 284 285 286 288 290 290 291 292 293 293 293 291 288 286 285 285 286
243 244 246 245 243 238 241 243 245 249 255 259 261 263 265 267 269 268 273 274 275 276 276 278 280 284 285 286 286 287 289 290 290 290 292 292 293 294 293 292 288 286 284 284
242 244 245 243 244 243 244 246 246 252 256 257 260 262 264 268 270 270 274 277 278 279 279 280 282 284 287 286 287 288 289 289 289 290 291 291 291 293 294 293 290 287 286 286
244 245 245 243 244 244 244 248 251 253 257 261 261 261 264 266 270 273 274 275 276 279 279 280 282 284 286 287 287 288 289 289 290 291 291 290 290 292 293 294 292 288 286 286
244 246 246 244 242 242 247 252 254 255 257 259 261 261 264 266 268 270 271 272 275 278 281 282 283 284 285 287 287 289 290 289 290 290 290 290 290 291 293 292 292 291 289 288
242 244 245 246 243 244 247 253 255 256 256 258 260 260 262 264 267 269 271 274 278 279 283 284 284 285 286 288 289 289 290 289 289 289 289 290 290 291 292 292 293 294 293 291
239 241 242 243 243 243 247 251 253 254 255 259 259 259 260 262 265 267 271 273 278 280 283 286 286 286 286 288 289 289 289 288 288 287 288 288 290 291 293 293 293 293 293 292
238 239 243 243 241 243 247 250 252 255 255 255 256 257 259 262 266 268 269 272 277 279 281 285 285 286 287 287 288 289 289 288 288 288 288 288 289 291 293 294 293 292 291 291
240 239 242 244 243 244 246 248 250 252 253 255 257 257 259 262 265 268 270 272 275 278 280 284 286 285 287 288 289 290 289 289 289 288 288 290 290 292 293 293 293 292 291 291
244 243 243 243 246 247 247 247 250 251 252 253 256 258 259 260 263 267 271 273 274 277 280 283 285 284 286 289 290 289 289 289 290 289 289 290 291 291 292 292 292 292 291 290
242 243 244 245 246 246 247 248 251 254 253 254 255 257 259 261 264 267 270 271 274 276 279 282 284 285 287 289 291 290 288 287 289 289 289 290 290 291 292 292 293 292 292 291
240 242 243 244 244 245 246 248 249 250 252 253 255 257 260 262 264 266 267 269 272 275 279 282 285 287 288 290 291 292 291 291 290 289 289 290 289 290 291 292 293 295 294 293
238 240 242 242 244 245 246 247 248 250 253 254 256 258 260 261 264 267 267 269 274 278 281 283 285 287 288 290 291 291 291 291 290 290 291 291 291 291 292 293 295 297 298 297
237 239 241 242 245 245 244 246 249 251 253 255 257 260 260 261 265 267 269 270 274 278 280 282 284 286 287 289 291 292 292 292 292 292 292 293 293 293 294 294 295 295 298 299
239 240 240 242 244 246 246 248 249 251 254 256 259 261 262 262 265 268 270 272 275 278 279 281 284 285 286 287 289 290 291 292 293 292 292 293 293 294 294 295 294 294 295 296
238 239 241 242 244 246 247 249 250 251 254 257 258 259 260 262 265 267 269 272 275 277 279 281 282 282 284 287 288 290 291 291 292 292 292 293 293 294 295 295 294 295 296 298
238 241 243 244 245 246 248 248 248 250 253 254 257 259 260 262 264 266 268 271 273 277 280 279 281 282 284 286 288 289 290 291 293 294 293 293 294 295 295 294 294 295 296 296
241 240 242 244 245 247 249 250 249 251 252 253 255 258 260 262 265 266 268 271 273 276 278 280 281 283 284 285 286 288 290 291 293 294 294 294 294 294 294 293 293 293 294 295
240 240 241 243 245 247 250 252 250 249 251 254 256 258 261 263 266 266 268 270 273 276 279 280 281 282 283 284 285 286 288 291 294 295 295 295 295 294 293 293 293 294 294 294
239 239 242 245 246 247 250 252 252 251 251 254 257 259 261 262 265 266 268 270 272 275 277 278 278 279 282 284 285 287 288 291 293 295 296 296 294 294 294 293 294 295 295 296
239 241 243 244 247 250 253 252 251 251 251 253 255 258 260 261 263 265 266 267 269 272 275 276 277 279 282 284 285 287 289 292 294 295 296 295 294 295 296 296 297 296 296 296
241 244 245 244 246 251 253 252 253 253 251 254 257 259 262 264 265 267 268 269 270 272 273 274 276 279 283 286 287 289 290 291 292 293 294 296 297 296 295 296 297 297 298 298
242 243 245 246 247 251 251 252 253 254 256 256 257 260 264 267 268 271 273 272 272 274 275 276 279 281 283 285 287 289 290 291 292 293 294 295 296 297 297 296 295 295 296 297
242 242 245 246 248 250 250 251 252 254 257 259 259 262 266 268 271 274 274 274 275 276 277 278 280 283 284 285 288 291 293 293 294 294 295 295 296 296 296 297 295 294 296 297
Height
5858 5860 5863 5865 5867 5870 5872 5873 5875 5876 5876 5876 5874 5873 5872 5873 5874 5873 5873 5873 5873 5873 5872 5872 5871 5871 5870 5869 5868 5867 5866 5864 5863 5861 5859 5858 5857 5855 5854 5852 5851 5850 5849 5848
5850 5853 5855 5856 5860 5862 5866 5867 5868 5869 5869 5869 5869 5867 5867 5869 5868 5868 5867 5867 5867 5867 5866 5866 5866 5865 5865 5864 5862 5861 5860 5858 5857 5855 5854 5852 5850 5849 5847 5845 5844 5843 5842 5841
5842 5845 5847 5849 5853 5855 5857 5860 5862 5862 5863 5862 5862 5862 5863 5863 5863 5863 5862 5861 5861 5861 5860 5860 5860 5859 5858 5857 5856 5855 5853 5852 5850 5848 5847 5845 5844 5842 5840 5838 5837 5835 5834 5833
5834 5837 5838 5844 5846 5848 5850 5851 5853 5853 5855 5855 5856 5855 5855 5855 5856 5857 5856 5855 5855 5855 5854 5854 5853 5852 5851 5850 5849 5848 5846 5845 5843 5841 5840 5838 5836 5834 5832 5830 5828 5827 5826 5825
5826 5829 5831 5836 5838 5840 5841 5843 5844 5846 5847 5849 5849 5850 5850 5850 5850 5850 5850 5849 5848 5848 5848 5847 5847 5846 5844 5843 5842 5840 5839 5837 5836 5834 5832 5830 5828 5826 5824 5822 5820 5819 5818 5817
5818 5821 5824 5828 5830 5832 5835 5835 5837 5838 5840 5842 5842 5843 5843 5843 5843 5843 5843 5842 5840 5840 5841 5840 5839 5839 5838 5836 5835 5833 5832 5830 5828 5827 5825 5823 5821 5819 5817 5814 5812 5811 5810 5808
5810 5812 5815 5820 5821 5824 5826 5827 5829 5829 5832 5834 5835 5836 5836 5836 5836 5836 5836 5836 5835 5835 5834 5833 5833 5831 5830 5829 5827 5826 5824 5823 5821 5819 5817 5816 5814 5812 5809 5807 5805 5803 5801 5800
5803 5805 5809 5810 5812 5815 5816 5819 5821 5822 5824 5826 5827 5828 5829 5829 5830 5829 5829 5829 5828 5827 5827 5826 5825 5824 5823 5821 5820 5818 5817 5815 5814 5812 5810 5808 5806 5804 5802 5800 5798 5795 5793 5792
5795 5797 5798 5801 5804 5806 5808 5810 5812 5814 5816 5817 5819 5820 5821 5822 5822 5822 5822 5821 5821 5820 5819 5819 5818 5817 5815 5814 5812 5811 5809 5808 5806 5804 5802 5800 5798 5796 5795 5792 5790 5788 5786 5784
5783 5785 5788 5792 5794 5797 5799 5801 5803 5805 5807 5809 5810 5812 5813 5814 5814 5814 5815 5814 5814 5813 5813 5812 5810 5809 5808 5806 5805 5803 5801 5800 5798 5796 5795 5793 5791 5788 5786 5784 5782 5781 5779 5777
5773 5777 5779 5782 5785 5788 5791 5793 5795 5797 5799 5800 5802 5803 5805 5806 5807 5807 5807 5807 5807 5806 5805 5804 5803 5802 5800 5799 5797 5795 5793 5792 5790 5788 5786 5785 5783 5781 5779 5777 5774 5773 5771 5769
5765 5768 5771 5774 5777 5780 5782 5785 5787 5789 5791 5792 5794 5796 5798 5799 5800 5800 5800 5800 5800 5799 5798 5796 5795 5794 5793 5791 5789 5787 5785 5783 5781 5780 5778 5777 5775 5773 5771 5769 5767 5764 5762 5761
5757 5759 5763 5766 5768 5771 5774 5777 5779 5781 5783 5785 5786 5789 5790 5791 5792 5792 5792 5792 5792 5792 5791 5789 5788 5786 5785 5784 5782 5780 5777 5775 5773 5772 5770 5768 5766 5764 5762 5761 5759 5757 5754 5752
5748 5751 5754 5757 5760 5762 5765 5769 5771 5772 5775 5777 5779 5781 5782 5783 5784 5785 5785 5785 5784 5784 5783 5782 5780 5779 5777 5776 5774 5772 5769 5767 5765 5764 5762 5760 5758 5756 5754 5753 5751 5749 5747 5744
5740 5743 5745 5748 5751 5754 5756 5760 5763 5765 5768 5770 5771 5773 5774 5775 5776 5777 5777 5776 5776 5776 5775 5774 5773 5771 5769 5768 5766 5764 5762 5759 5757 5756 5754 5752 5750 5748 5747 5745 5742 5740 5738 5736
5732 5735 5738 5740 5743 5746 5749 5752 5755 5757 5759 5762 5764 5765 5766 5767 5768 5768 5768 5768 5768 5768 5767 5766 5765 5763 5762 5760 5758 5756 5754 5752 5749 5748 5746 5744 5742 5740 5739 5736 5734 5732 5730 5728
5723 5727 5730 5733 5736 5738 5741 5745 5747 5749 5751 5754 5755 5756 5757 5758 5759 5760 5760 5760 5760 5759 5759 5758 5757 5755 5754 5752 5750 5748 5746 5744 5742 5740 5738 5736 5734 5732 5730 5728 5726 5724 5722 5720
5715 5719 5723 5726 5729 5731 5734 5737 5739 5741 5744 5745 5747 5749 5749 5750 5751 5751 5751 5752 5751 5751 5750 5750 5749 5747 5745 5743 5742 5740 5738 5736 5734 5732 5730 5728 5726 5724 5722 5720 5717 5715 5713 5710
5707 5712 5715 5719 5721 5724 5726 5729 5731 5733 5735 5737 5739 5740 5741 5742 5743 5743 5743 5744 5743 5743 5742 5741 5740 5739 5737 5735 5733 5732 5730 5728 5726 5724 5722 5720 5718 5716 5714 5711 5709 5706 5703 5701
5701 5705 5708 5711 5714 5716 5719 5721 5723 5725 5728 5730 5731 5732 5732 5733 5734 5735 5735 5735 5735 5734 5734 5733 5732 5731 5729 5727 5725 5724 5722 5720 5718 5715 5713 5711 5709 5707 5705 5703 5700 5698 5696 5693
5695 5698 5701 5704 5707 5709 5711 5713 5715 5717 5719 5721 5722 5723 5724 5725 5725 5726 5727 5727 5727 5726 5725 5725 5724 5722 5721 5719 5718 5716 5714 5712 5710 5707 5705 5703 5701 5699 5697 5694 5692 5690 5687 5685
5688 5691 5694 5697 5699 5702 5703 5705 5707 5709 5711 5713 5714 5715 5716 5717 5717 5718 5719 5719 5718 5718 5717 5716 5715 5714 5712 5711 5710 5708 5706 5704 5702 5699 5697 5695 5693 5691 5689 5686 5683 5681 5679 5677
5683 5685 5688 5690 5693 5695 5696 5698 5700 5701 5703 5705 5706 5708 5709 5709 5708 5709 5710 5710 5710 5709 5709 5708 5707 5706 5705 5703 5701 5699 5698 5696 5694 5691 5689 5687 5685 5683 5680 5678 5675 5672 5670 5668
5677 5680 5682 5684 5686 5688 5689 5691 5693 5694 5696 5697 5698 5700 5701 5701 5701 5701 5702 5702 5702 5701 5700 5700 5699 5698 5696 5695 5693 5691 5690 5688 5686 5684 5681 5679 5677 5675 5672 5670 5667 5664 5662 5659
5672 5674 5676 5678 5680 5682 5683 5685 5686 5688 5689 5690 5691 5692 5693 5694 5694 5694 5694 5694 5694 5693 5693 5692 5691 5690 5689 5687 5685 5684 5682 5680 5678 5675 5673 5671 5668 5666 5664 5661 5658 5656 5653 5651
5667 5668 5670 5672 5674 5676 5677 5679 5680 5681 5682 5683 5684 5685 5686 5686 5687 5687 5687 5687 5686 5685 5685 5684 5683 5682 5681 5679 5677 5675 5673 5671 5669 5667 5664 5662 5660 5657 5655 5652 5650 5647 5645 5642
5661 5663 5665 5666 5668 5670 5671 5672 5674 5675 5676 5677 5678 5679 5679 5680 5680 5680 5679 5679 5678 5678 5677 5676 5675 5674 5672 5670 5668 5666 5664 5662 5660 5657 5655 5653 5651 5648 5646 5643 5641 5638 5636 5634